Date String (YYYY-MM-DD hh:mm:ss) UTC,Instrument flags,Ambient pressure (hPa),Sample flow (lpm),Bypass flow (lpm),Sample temperature (°C),Ambient temperature (°C),ASC tube jacket temperature (°C),LED temperature (°C),Box temperature (°C),Sample RH (%),Span deviation,Mass concentration (μg/m³),Mass concentration (μg/m³),Mass concentration (μg/m³)
DateTimeUTC,F1_M11,P_M11,Q1_M11,Q2_M11,T1_M11,T2_M11,T3_M11,T4_M11,T5_M11,U1_M11,ZSPAN_M11,X0_M11,X2_M11,X1_M11
2021-08-23 08:00:00,,0827.2,5.01,0.00,29.4,26.0,00.0,38.7,30.6,20.6,0002.3,0029.21,0021.05,0019.86
2021-08-23 08:01:00,,0827.5,5.00,0.00,29.3,26.4,00.0,38.6,30.7,21.1,0002.0,0029.28,0021.03,0019.85
2021-08-23 08:02:00,,0827.4,5.00,0.00,29.3,26.8,00.0,38.6,30.8,21.0,0002.1,0029.32,0021.16,0019.93
2021-08-23 08:03:00,,0827.3,4.99,0.00,29.3,27.1,00.0,38.6,30.9,20.5,0002.2,0029.65,0021.43,0020.18
2021-08-23 08:04:00,,0827.2,5.00,0.00,29.2,27.4,00.0,38.5,30.9,20.6,0002.1,0029.75,0021.73,0020.47
2021-08-23 08:05:00,,0827.4,4.99,0.00,29.2,27.6,00.0,38.5,31.0,20.5,0002.1,0029.61,0021.89,0020.64
2021-08-23 08:06:00,,0827.4,5.01,0.00,29.3,27.8,00.0,38.5,31.0,20.5,0002.1,0030.23,0021.96,0020.70
2021-08-23 08:07:00,,0827.3,5.00,0.00,29.3,27.9,00.0,38.5,31.0,20.6,0002.2,0029.70,0022.03,0020.76
2021-08-23 08:08:00,,0827.0,4.99,0.00,29.3,28.1,00.0,38.5,31.0,20.6,0002.3,0029.76,0022.13,0020.87
2021-08-23 08:09:00,,0827.0,5.00,0.00,29.3,28.1,00.0,38.5,31.0,20.6,0002.5,0029.90,0022.31,0021.05
2021-08-23 08:10:00,,0827.0,5.00,0.00,29.3,28.2,00.0,38.5,31.0,20.6,0002.1,0030.17,0022.45,0021.17
2021-08-23 08:11:00,,0826.9,4.99,0.00,29.3,28.3,00.0,38.5,31.1,20.7,0002.2,0030.62,0022.63,0021.36
2021-08-23 08:12:00,,0827.0,4.99,0.00,29.3,28.3,00.0,38.5,31.1,20.8,0002.6,0031.11,0022.95,0021.63
2021-08-23 08:13:00,,0827.2,5.00,0.00,29.3,28.4,00.0,38.5,31.1,20.8,0002.8,0032.09,0023.20,0021.86
2021-08-23 08:14:00,,0827.2,4.99,0.00,29.3,28.4,00.0,38.5,31.1,20.7,0002.8,0032.26,0023.27,0021.96
2021-08-23 08:15:00,,0826.9,5.00,0.00,29.3,28.4,00.0,38.5,31.1,20.6,0002.6,0032.88,0023.35,0022.05
2021-08-23 08:16:00,,0827.0,5.01,0.00,29.3,28.5,00.0,38.5,31.1,20.5,0002.6,0032.38,0023.58,0022.21
2021-08-23 08:17:00,,0827.0,5.00,0.00,29.3,28.5,00.0,38.5,31.1,20.6,0002.6,0031.98,0023.65,0022.28
2021-08-23 08:18:00,,0826.9,4.99,0.00,29.3,28.5,00.0,38.5,31.1,20.4,0002.7,0032.26,0023.66,0022.28
2021-08-23 08:19:00,,0826.9,5.01,0.00,29.3,28.5,00.0,38.5,31.1,20.3,0002.6,0033.01,0023.69,0022.31
2021-08-23 08:20:00,,0826.9,5.00,0.00,29.3,28.5,00.0,38.5,31.1,20.5,0002.4,0034.05,0023.63,0022.22
2021-08-23 08:21:00,,0826.9,5.00,0.00,29.3,28.5,00.0,38.5,31.1,20.6,0002.4,0034.63,0023.57,0022.16
2021-08-23 08:22:00,,0826.9,5.01,0.00,29.3,28.5,00.0,38.5,31.1,20.6,0002.2,0035.20,0023.56,0022.12
2021-08-23 08:23:00,,0826.9,4.99,0.00,29.4,28.6,00.0,38.5,31.2,20.8,0002.0,0035.58,0023.47,0022.05
2021-08-23 08:24:00,,0826.9,5.01,0.00,29.4,28.6,00.0,38.5,31.1,20.7,0002.0,0035.17,0023.37,0021.99
2021-08-23 08:25:00,,0826.9,5.00,0.00,29.3,28.6,00.0,38.5,31.1,20.9,0002.0,0035.11,0023.31,0021.94
2021-08-23 08:26:00,,0826.9,4.99,0.00,29.3,28.6,00.0,38.5,31.1,21.1,0002.2,0034.87,0023.20,0021.83
2021-08-23 08:27:00,,0826.9,5.00,0.00,29.3,28.6,00.0,38.5,31.1,21.2,0002.3,0034.75,0022.90,0021.60
2021-08-23 08:28:00,,0826.9,5.00,0.00,29.3,28.6,00.0,38.5,31.1,21.2,0002.4,0034.45,0022.70,0021.42
2021-08-23 08:29:00,,0826.9,4.99,0.00,29.3,28.6,00.0,38.5,31.1,21.1,0002.5,0034.22,0022.56,0021.28
2021-08-23 08:30:00,,0826.9,5.00,0.00,29.3,28.6,00.0,38.5,31.1,20.8,0002.4,0033.82,0022.52,0021.23
2021-08-23 08:31:00,,0827.0,4.99,0.00,29.4,28.6,00.0,38.5,31.1,20.9,0002.5,0032.75,0022.44,0021.18
2021-08-23 08:32:00,,0827.0,5.00,0.00,29.4,28.6,00.0,38.5,31.1,20.6,0002.7,0032.27,0022.37,0021.17
2021-08-23 08:33:00,,0827.1,5.00,0.00,29.4,28.6,00.0,38.5,31.1,20.8,0002.8,0031.35,0022.22,0021.09
2021-08-23 08:34:00,,0827.1,5.00,0.00,29.4,28.6,00.0,38.5,31.1,20.4,0002.9,0030.55,0022.15,0021.01
2021-08-23 08:35:00,,0827.0,5.01,0.00,29.4,28.6,00.0,38.5,31.1,20.4,0002.7,0030.77,0022.16,0020.99
2021-08-23 08:36:00,,0826.8,4.98,0.00,29.4,28.6,00.0,38.5,31.1,20.7,0002.6,0030.75,0022.08,0020.92
2021-08-23 08:37:00,,0826.9,5.00,0.00,29.4,28.6,00.0,38.5,31.1,20.7,0002.4,0030.33,0022.03,0020.88
2021-08-23 08:38:00,,0826.9,5.01,0.00,29.4,28.6,00.0,38.5,31.1,20.8,0002.4,0030.25,0022.09,0020.93
2021-08-23 08:39:00,,0827.0,4.99,0.00,29.4,28.7,00.0,38.5,31.1,20.9,0002.3,0030.61,0022.17,0020.98
2021-08-23 08:40:00,,0826.8,5.00,0.00,29.4,28.7,00.0,38.5,31.1,20.8,0002.2,0030.33,0022.26,0021.04
2021-08-23 08:41:00,,0826.8,5.01,0.00,29.4,28.7,00.0,38.5,31.1,20.9,0002.3,0029.94,0022.18,0020.98
2021-08-23 08:42:00,,0827.0,4.99,0.00,29.4,28.7,00.0,38.5,31.1,20.9,0002.3,0030.34,0022.18,0020.96
2021-08-23 08:43:00,,0826.8,5.00,0.00,29.4,28.7,00.0,38.5,31.1,21.2,0002.3,0029.91,0022.16,0020.89
2021-08-23 08:44:00,,0826.8,5.01,0.00,29.3,28.7,00.0,38.5,31.1,21.2,0002.5,0030.46,0022.23,0020.90
2021-08-23 08:45:00,,0826.8,5.00,0.00,29.4,28.7,00.0,38.5,31.1,21.1,0002.5,0030.43,0022.26,0020.93
2021-08-23 08:46:00,,0826.8,5.00,0.00,29.3,28.7,00.0,38.5,31.1,21.1,0002.7,0030.05,0022.31,0020.99
2021-08-23 08:47:00,,0826.8,5.00,0.00,29.3,28.7,00.0,38.5,31.1,21.2,0002.8,0030.57,0022.52,0021.17
2021-08-23 08:48:00,,0826.8,5.01,0.00,29.4,28.7,00.0,38.5,31.1,21.2,0002.8,0030.65,0022.68,0021.31
2021-08-23 08:49:00,,0826.8,5.00,0.00,29.4,28.7,00.0,38.5,31.1,21.2,0002.9,0030.97,0022.82,0021.44
2021-08-23 08:50:00,,0826.8,4.99,0.00,29.4,28.7,00.0,38.5,31.1,21.2,0003.0,0031.11,0022.95,0021.57
2021-08-23 08:51:00,,0826.8,5.00,0.00,29.3,28.7,00.0,38.5,31.1,21.3,0003.1,0031.26,0023.01,0021.68
2021-08-23 08:52:00,,0826.8,5.00,0.00,29.3,28.7,00.0,38.5,31.1,21.2,0003.0,0031.54,0023.09,0021.75
2021-08-23 08:53:00,,0826.8,5.00,0.00,29.3,28.7,00.0,38.5,31.1,21.2,0003.0,0031.64,0023.09,0021.78
2021-08-23 08:54:00,,0826.8,5.00,0.00,29.3,28.7,00.0,38.5,31.1,21.0,0002.9,0032.00,0023.07,0021.80
2021-08-23 08:55:00,,0826.8,4.99,0.00,29.3,28.7,00.0,38.5,31.1,20.9,0002.7,0031.75,0022.92,0021.74
2021-08-23 08:56:00,,0826.8,5.00,0.00,29.3,28.7,00.0,38.5,31.0,20.8,0002.7,0031.69,0022.84,0021.66
2021-08-23 08:57:00,,0826.8,4.99,0.00,29.3,28.7,00.0,38.5,31.1,20.9,0002.8,0031.78,0022.77,0021.60
2021-08-23 08:58:00,,0826.8,5.01,0.00,29.3,28.7,00.0,38.5,31.1,21.1,0002.8,0030.98,0022.61,0021.49
2021-08-23 08:59:00,,0826.8,5.00,0.00,29.3,28.7,00.0,38.5,31.1,21.0,0002.8,0031.12,0022.48,0021.34
